STARLINK-1227, 45230

Orbit data source: Space-Track

STARLINK-1227, 45230 is a payload satellite owned by SpaceX/Seattle (US) in LEO that was launched on Mon, 17 Feb 2020 UTC via an FALCON 9 launch vehicle from the Air Force Eastern Test Range (AFETR). Payloads include a variety of satellites, spacecraft, and rockets equipped with specific instruments for various scientific and technological missions. These include communications satellites like Starlink; space stations such as the ISS; scientific satellites like the Hubble; Earth observation satellites from companies like Planet Labs, Umbra, and HawkEye 360; GPS; miniature CubeSats for education and research; and military/defense satellites.

Loading next visibility...
STARLINK-1227 details
Identifier
45230, 2020-012BE
Orbit
LEO
Last TLE update9 hours ago
Origin
Flag of USSpaceX/Seattle (US)
ManufacturerSpaceX/Seattle
MissionOperational Commercial Communications
Bus & MotorSTARLINK, Unknown motor
Mass260 kg wet, ~248 kg dry
Launch date (UTC)
2020-02-17 (5 years ago)
Launch vehicle
FALCON 9
Launch site
Air Force Eastern Test Range (AFETR)
Object type
Payload
Rocket body
Debris
Shape & HBRBox + 1 Pan, 8.86 m
Radar Cross Section13.562 m², Large (>1 m²)

Expand to show TLE details & history

TLE from 9 hours ago
0 STARLINK-1227
1 45230U 20012BE  24340.04437596  .00018346  00000-0  12476-2 0  9994
2 45230  53.0556 270.0469 0001746 108.0680 252.0499 15.06391050265182
Epoch: 2024-12-05T01:03Z
Definitive object data (Epoch: 2024-12-05T01:03:54.082Z)
Latitude-0.00007°
Longitude179.74068°
Altitude548.491 km
Speed7.589 km/s
True Right ascension18h 00m 11s
True Declination0° 00' 00"
Sunlit
Object was in daylight at TLE epoch
Visualization TLE readout
Latitude-33.00369°
Longitude148.92551°
Altitude558.572 km
Speed7.581 km/s
Apparent Right ascension17h 57m 32s
Apparent Declination-41° 07' 59"
Sunlit
Object is in daylight
Visualization observer readout
Local Sidereal Time08:24:10
Azimuth104.564° ESE
Elevation-62.314°
Doppler factor1
Orbital elements
Apogee altitude548.719 km
Perigee altitude546.3 km
Semi-major axis6,925.647 km
Eccentricity0.0001746
Inclination53.0556°
RAAN270.0469°
Arg. of periapsis108.068°
True anomaly252.03087°
Mean anomaly252.0499°
Eccentric anomaly252.04038°
Mean motion3.76576 °/min
BSTAR0.0012476
Orbital period95.6 mins
Loading maneuver chart data...

STARLINK-1227 Visibility forecast

Observer location: undefined°, undefined

Span
Click to sort rows by Start time (UTC) header in descending order
Start Az.
Max El. time (UTC)
Max El. Az.
Max El.
End time (UTC)
End Az.
7 mins2024-12-05 21:55:47.091Z214.583° SW2024-12-05 21:58:47.091Z170.456° S39.449°2024-12-05 22:02:47.091Z57.876° ENE
5 mins2024-12-05 23:36:47.091Z288.717° WNW2024-12-05 23:38:47.091Z328.042° NNW23.532°2024-12-05 23:41:47.091Z25.795° NE
7 mins2024-12-06 04:37:47.091Z319.079° NNW2024-12-06 04:40:47.091Z38.336° NE41.074°2024-12-06 04:44:47.091Z117.724° SE
|